{"data":{"norad_id":48978,"intl_designator":"2021-060M","name":"ONEWEB-0260","alt_names":[],"object_type":"PAYLOAD","status":"ACTIVE","operator":null,"country":"UK","launch_date":"2021-07-01","launch_site_code":"VOSTO","launch_vehicle":null,"mission":null,"orbit_class":"UNKNOWN","rcs_meters":null,"size_class":null,"mass_kg":null,"dimensions":null,"purposes":["comms"],"wikipedia_slug":null,"has_3d_model":false,"image_url":null,"decayed_at":null,"tle_current":{"epoch":"2026-09-19T13:17:03.863616Z","epoch_age_seconds":103744,"freshness":"FRESH","line1":"1 48978U 21060M   26262.55351694  .00000019  00000+0  16992-4 0  9991","line2":"2 48978  87.9153 210.0445 0002379  80.0291 280.1108 13.16593355252020","mean_motion":13.16593355,"eccentricity":0.0002379,"inclination_deg":87.9153,"raan_deg":210.0445,"arg_perigee_deg":80.0291,"mean_anomaly_deg":280.1108,"bstar":1.6992e-5,"rev_number":25202,"period_min":109.37317847848,"perigee_km":1195.9578213373,"apogee_km":1199.5624331905,"semimajor_km":7575.8971272639,"source":"CELESTRAK","updated_at":"2026-09-20T09:00:44.625148Z"}}}